De Queen, AR

8:42 AM CDT on October 23, 2019 (GMT -0500)
Helms Sevier County

Weather History for KDEQ - August, 2019

Change the Weather History Date:

Saturday, August 10, 2019

  Actual Average Record
Temperature  
Mean Temperature 85 °F 82 °F  
Max Temperature 95 °F 94 °F 114 °F (1936)
Min Temperature 75 °F 69 °F 55 °F (1989)
Degree Days  
Heating Degree Days 0 0  
Month to date heating degree days 0 0  
Since 1 June heating degree days 0 0  
Since 1 July heating degree days 0 0  
Cooling Degree Days 20 17  
Month to date cooling degree days 186 166  
Year to date cooling degree days 1323 1258  
Since 1 June cooling degree days 1050 1041  
Growing Degree Days 35 (Base 50)    
Moisture  
Dew Point 78 °F    
Average Humidity 82    
Maximum Humidity 100    
Minimum Humidity 53    
Precipitation  
Precipitation T in 0.07 in 0.93 in (1991)
Month to date precipitation 0.08 0.71  
Year to date precipitation 37.16 30.13  
Snow  
Snow 0.00 in - - ()
Month to date snowfall 0.0  
Since 1 June snowfall 0.0  
Since 1 July snowfall 0.0  
Snow Depth 0.00 in    
Sea Level Pressure  
Sea Level Pressure 29.90 in    
Wind  
Wind Speed 3 mph ()    
Max Wind Speed 10 mph    
Max Gust Speed 14 mph    
Visibility 9.1 miles    
Events Rain    
T = Trace of Precipitation, MM = Missing Value Source: Averaged Metar Reports

Daily Weather History Graph

Daily Weather History Graph

Search for Another Location

Airport or City:

Astronomy

Aug. 10, 2019 Rise Set
Actual Time 6:35 AM CDT 8:10 PM CDT
Civil Twilight 6:08 AM CDT 8:36 PM CDT
Nautical Twilight 5:36 AM CDT 9:08 PM CDT
Astronomical Twilight 5:02 AM CDT 9:42 PM CDT
Moon 4:48 PM CDT (8/10) 2:16 AM CDT (8/10)
Length of Visible Light 14h 28m
Length of Day
13h 34m
Waxing Gibbous, 79% of the Moon is Illuminated
Aug 10
Waxing Gibbous
Aug 15
Full
Aug 23
Last Quarter
Aug 30
New
Sep 5
First Quarter

Hourly Weather History & Observations

Time (CDT) Temp. Heat Index Dew Point Humidity Pressure Visibility Wind Dir Wind Speed Gust Speed Precip Events Conditions
12:53 AM 79.0 °F - 78.1 °F 97% 29.89 in 10.0 mi East 4.6 mph - N/A   Mostly Cloudy
1:53 AM 79.0 °F - 78.1 °F 97% 29.88 in 10.0 mi Calm Calm - N/A   Partly Cloudy
2:53 AM 79.0 °F - 77.0 °F 94% 29.87 in 10.0 mi Calm Calm - N/A   Clear
3:53 AM 78.1 °F - 77.0 °F 96% 29.88 in 8.0 mi Calm Calm - N/A   Clear
4:53 AM 77.0 °F - 77.0 °F 100% 29.88 in 6.0 mi Calm Calm - N/A   Clear
5:53 AM 77.0 °F - 75.9 °F 96% 29.89 in 9.0 mi Calm Calm - N/A   Clear
6:53 AM 75.9 °F - 75.9 °F 100% 29.90 in 4.0 mi Calm Calm - N/A   Clear
7:53 AM 78.1 °F - 77.0 °F 96% 29.93 in 5.0 mi ENE 3.5 mph - N/A   Mostly Cloudy
8:53 AM 79.0 °F - 79.0 °F 100% 29.94 in 6.0 mi Calm Calm - 0.00 in Rain Light Rain
9:53 AM 84.0 °F 96.0 °F 79.0 °F 85% 29.95 in 10.0 mi SW 6.9 mph - 0.00 in   Clear
10:53 AM 84.9 °F 97.5 °F 79.0 °F 82% 29.95 in 10.0 mi West 5.8 mph - N/A   Partly Cloudy
11:53 AM 88.0 °F 103.1 °F 79.0 °F 75% 29.94 in 10.0 mi SSE 5.8 mph - N/A   Partly Cloudy
12:53 PM 90.0 °F 101.3 °F 75.9 °F 63% 29.94 in 10.0 mi SE 5.8 mph - N/A   Clear
1:53 PM 91.9 °F 105.9 °F 77.0 °F 62% 29.92 in 10.0 mi South 3.5 mph - N/A   Clear
2:53 PM 93.0 °F 105.3 °F 75.9 °F 57% 29.90 in 10.0 mi Variable 4.6 mph - N/A   Clear
3:53 PM 93.9 °F 109.9 °F 78.1 °F 60% 29.87 in 10.0 mi South 6.9 mph - N/A   Clear
4:53 PM 95.0 °F 108.2 °F 75.9 °F 54% 29.86 in 10.0 mi SSE 6.9 mph - N/A   Clear
5:53 PM 93.9 °F 108.4 °F 77.0 °F 58% 29.85 in 10.0 mi SE 5.8 mph - N/A   Clear
6:53 PM 91.9 °F 107.3 °F 78.1 °F 64% 29.86 in 10.0 mi SE 6.9 mph - N/A   Clear
7:53 PM 88.0 °F 103.1 °F 79.0 °F 75% 29.87 in 10.0 mi ESE 5.8 mph - N/A   Clear
8:53 PM 86.0 °F 99.3 °F 79.0 °F 79% 29.89 in 10.0 mi ESE 5.8 mph - N/A   Clear
9:53 PM 82.0 °F 91.6 °F 79.0 °F 90% 29.92 in 10.0 mi Calm Calm - N/A   Clear
10:53 PM 79.0 °F - 79.0 °F 100% 29.92 in 10.0 mi Calm Calm - N/A   Clear
11:53 PM 82.9 °F 91.8 °F 77.0 °F 82% 29.92 in 10.0 mi SE 3.5 mph - N/A   Clear